User: anonymous   Login
Location: Bowman Observatory
(41.0326°N, 73.6210°W)
Time: 03:50:50
(UTC-04:00)
Language:

Cosmos 2298 Rocket - Orbit

View from above orbital plane
View from above orbital plane
View from above satellite
View from above satellite

Ground track
Ground track

The orbit data is extracted from the following two-line orbital elements,

1 23432U 94083B   15090.87139278  .00000189  00000-0  78192-4 0  9997
2 23432 074.0340 336.0082 0004996 008.8531 062.5234 14.33368029 60488
Epoch (UTC): 31 March 2015 20:54:48
Eccentricity: 0.0004996
inclination: 74.0340°
perigee height: 777 km
apogee height: 784 km
right ascension of ascending node: 336.0082°
argument of perigee: 8.8531°
revolutions per day: 14.33368029
mean anomaly at epoch: 62.5234°
orbit number at epoch: 6048

The dashed part of the orbit path shows where the satellite is in the earth's shadow,  

DLR